This is the latest recevied weather packets stored in our database for station/object MB7UKY-10. If no packets are shown the sender has not sent any weather packets the latest 10 day(s).
| Time | Temp. | Humidity | Pressure | Rain* | Wind** | Luminosity | Snow |
|---|---|---|---|---|---|---|---|
| 1777843497 | 21.11° C | 50% | 1006.2 hPa | - | - | - | - |
| 1777842596 | 21.11° C | 50% | 1006.1 hPa | - | - | - | - |
| 1777841695 | 21.11° C | 50% | 1006 hPa | - | - | - | - |
| 1777840794 | 21.67° C | 50% | 1005.9 hPa | - | - | - | - |
| 1777839894 | 21.67° C | 50% | 1005.7 hPa | - | - | - | - |
| 1777838993 | 22.22° C | 49% | 1005.5 hPa | - | - | - | - |
| 1777838092 | 22.78° C | 49% | 1005.3 hPa | - | - | - | - |
| 1777837191 | 22.78° C | 48% | 1005 hPa | - | - | - | - |
| 1777836291 | 23.33° C | 48% | 1004.8 hPa | - | - | - | - |
| 1777835390 | 23.89° C | 47% | 1004.7 hPa | - | - | - | - |
| 1777834489 | 24.44° C | 47% | 1004.4 hPa | - | - | - | - |
| 1777833589 | 24.44° C | 46% | 1004.3 hPa | - | - | - | - |
| 1777832688 | 25° C | 46% | 1004 hPa | - | - | - | - |
| 1777831787 | 25° C | 46% | 1004 hPa | - | - | - | - |
| 1777830886 | 25° C | 46% | 1004 hPa | - | - | - | - |
| 1777829986 | 25° C | 46% | 1003.9 hPa | - | - | - | - |
| 1777829085 | 25° C | 46% | 1004 hPa | - | - | - | - |
| 1777828184 | 25° C | 46% | 1004 hPa | - | - | - | - |
| 1777827283 | 25° C | 46% | 1004 hPa | - | - | - | - |
| 1777826383 | 25° C | 47% | 1004 hPa | - | - | - | - |
| 1777825482 | 24.44° C | 48% | 1003.8 hPa | - | - | - | - |
| 1777824581 | 24.44° C | 48% | 1003.8 hPa | - | - | - | - |
| 1777823680 | 24.44° C | 48% | 1003.7 hPa | - | - | - | - |
| 1777822780 | 24.44° C | 48% | 1003.9 hPa | - | - | - | - |
| 1777821879 | 24.44° C | 48% | 1003.9 hPa | - | - | - | - |
* Rain since midnight (hover to see other rain measurements)
** Current wind speed in m/s (hover to see current wind gust speed)